Location: Thompson
(55.7500°N, 97.8670°W)
Time: 04:34:08
(UTC-05:00)

Amateur Radio Satellites - All Passes

Search period start: 17 September 2014 04:04
Search period end: 18 September 2014 04:04
Location: Thompson, 55.7500°N, 97.8670°W

Satellite Date Start Highest point End Downlink Frequencies (MHz)
Time Altitude Azimuth
SO-50 17 Sep 04:05:44 04:09:47 28° 355° (N) 04:13:55 436.795 FM
RS-15 17 Sep 04:07:56 04:15:01 20° 98° (E) 04:22:03 29.354 - 29.394 USB, Beacon 29.352 USB
Saudisat 1A 17 Sep 04:12:39 04:15:33 17° 245° (WSW) 04:18:26 436.775 MHz
Oscar 16 17 Sep 04:17:09 04:22:09 48° 296° (WNW) 04:27:07 437.025 USB, Beacon 2401.1428
UOSAT-12 17 Sep 04:17:57 04:22:29 45° 333° (NNW) 04:27:05 437.025 FM, 437.400 FM
Uosat F 17 Sep 04:24:10 04:25:48 11° 82° (E) 04:27:26 435.120 FM
Gurwin Techsat 1B 17 Sep 04:25:17 04:30:35 61° 102° (ESE) 04:35:50 435.225 FM
OPAL 17 Sep 04:26:07 04:31:14 60° 64° (ENE) 04:36:23 ?
KITSAT 1 17 Sep 04:28:39 04:36:48 77° 41° (NE) 04:44:54 435.175 FM
AO-7 17 Sep 04:34:48 04:41:08 23° 86° (E) 04:47:25 29.400 - 29.500 MHz
AO-Echo 17 Sep 04:53:37 04:58:06 42° 296° (WNW) 05:02:39 ?
ITAMSAT 1 17 Sep 04:54:28 04:59:31 52° 295° (WNW) 05:04:34 435.822 SSB
Uribyol 2 17 Sep 04:59:29 05:04:28 46° 297° (WNW) 05:09:26 436.500 FM
TMSAT-1 17 Sep 05:04:16 05:09:38 88° 108° (ESE) 05:14:57 436.925 FM
STRAND 1 17 Sep 05:05:16 05:08:05 15° 45° (NE) 05:10:55 ?
Oscar 19 17 Sep 05:18:46 05:22:38 22° 309° (NW) 05:26:29 437.125 CW, 437.150 USB
JAS-1B 17 Sep 05:24:04 05:29:44 40° 303° (WNW) 05:34:59 435.800 - 435.900 CW/SSB
AO-27 17 Sep 05:29:02 05:33:35 32° 303° (WNW) 05:38:08 436.795 MHz FM
JAS-2 17 Sep 05:42:26 05:44:54 13° 82° (E) 05:47:27 435.800 - 435.900 CW/SSB, 435.910 FM
SO-50 17 Sep 05:47:06 05:51:27 35° 19° (NNE) 05:55:53 436.795 FM
Oscar 16 17 Sep 05:58:01 06:00:25 13° 318° (NW) 06:02:49 437.025 USB, Beacon 2401.1428
UOSAT-12 17 Sep 05:59:29 06:03:37 28° 356° (N) 06:07:45 437.025 FM, 437.400 FM
Uosat F 17 Sep 06:00:41 06:05:41 60° 103° (ESE) 06:10:39 435.120 FM
Gurwin Techsat 1B 17 Sep 06:05:41 06:10:19 31° 303° (WNW) 06:14:56 435.225 FM
OPAL 17 Sep 06:05:56 06:10:27 30° 264° (W) 06:15:02 ?
RS-15 17 Sep 06:14:18 06:24:59 62° 124° (ESE) 06:35:41 29.354 - 29.394 USB, Beacon 29.352 USB
ISS 17 Sep 06:16:07 06:19:01 28° 161° (SSE) 06:21:55 145.800 FM
KITSAT 1 17 Sep 06:24:24 06:31:47 41° 245° (WSW) 06:39:08 435.175 FM
AO-7 17 Sep 06:26:59 06:35:20 78° 110° (ESE) 06:43:38 29.400 - 29.500 MHz
AO-Echo 17 Sep 06:34:46 06:35:48 11° 317° (NW) 06:36:50 ?
ITAMSAT 1 17 Sep 06:35:21 06:37:59 14° 317° (NW) 06:40:38 435.822 SSB
Uribyol 2 17 Sep 06:40:33 06:42:49 13° 318° (NW) 06:45:06 436.500 FM
STRAND 1 17 Sep 06:41:22 06:46:21 58° 66° (ENE) 06:51:22 ?
TMSAT-1 17 Sep 06:44:55 06:48:59 23° 308° (NW) 06:53:03 436.925 FM
JAS-1B 17 Sep 07:16:08 07:18:42 13° 329° (NNW) 07:21:11 435.800 - 435.900 CW/SSB
Hamsat 17 Sep 07:22:19 07:26:33 52° 100° (E) 07:30:42 145.90 MHz
JAS-2 17 Sep 07:25:32 07:31:08 59° 102° (ESE) 07:37:23 435.800 - 435.900 CW/SSB, 435.910 FM
SO-50 17 Sep 07:27:45 07:32:32 89° 42° (NE) 07:37:24 436.795 FM
SO-67 17 Sep 07:38:54 07:40:39 13° 87° (E) 07:42:24 435.3500 MHz FM
Uosat F 17 Sep 07:39:55 07:44:14 30° 303° (WNW) 07:48:32 435.120 FM
UOSAT-12 17 Sep 07:40:26 07:44:51 37° 20° (NNE) 07:49:16 437.025 FM, 437.400 FM
ISS 17 Sep 07:52:09 07:55:19 41° 180° (S) 07:58:29 145.800 FM
AO-7 17 Sep 08:20:11 08:27:39 40° 313° (NW) 08:35:07 29.400 - 29.500 MHz
STRAND 1 17 Sep 08:21:29 08:25:53 29° 267° (W) 08:30:19 ?
RS-15 17 Sep 08:26:32 08:37:27 67° 332° (NNW) 08:48:29 29.354 - 29.394 USB, Beacon 29.352 USB
MaSat-1 17 Sep 08:39:09 08:39:52 10° 99° (E) 08:40:34 437.345 MHz
Hamsat 17 Sep 08:58:42 09:02:17 26° 300° (WNW) 09:05:50 145.90 MHz
SO-50 17 Sep 09:08:55 09:12:38 23° 242° (WSW) 09:16:22 436.795 FM
SO-67 17 Sep 09:10:41 09:14:09 70° 287° (WNW) 09:17:35 435.3500 MHz FM
JAS-2 17 Sep 09:11:07 09:16:07 35° 301° (WNW) 09:21:37 435.800 - 435.900 CW/SSB, 435.910 FM
UOSAT-12 17 Sep 09:20:42 09:25:29 85° 223° (SW) 09:30:13 437.025 FM, 437.400 FM
ISS 17 Sep 09:28:45 09:31:37 27° 200° (SSW) 09:34:29 145.800 FM
HO-68 17 Sep 10:09:23 10:16:07 41° 97° (E) 10:22:50 435.675 MHz FM
MaSat-1 17 Sep 10:10:49 10:15:41 49° 118° (ESE) 10:20:23 437.345 MHz
AO-7 17 Sep 10:13:07 10:18:24 19° 339° (NNW) 10:23:42 29.400 - 29.500 MHz
Oscar 11 17 Sep 10:22:25 10:25:37 20° 89° (E) 10:28:47 145.825 FM, Beacon 2401.500 USB
UKube-1 17 Sep 10:36:06 10:39:59 30° 95° (E) 10:43:50 145.840 MHz, 145.915 MHz
RS-15 17 Sep 10:40:58 10:51:40 54° 4° (N) 11:02:35 29.354 - 29.394 USB, Beacon 29.352 USB
SO-67 17 Sep 10:45:49 10:46:32 11° 307° (NW) 10:47:15 435.3500 MHz FM
JAS-1B 17 Sep 10:52:31 10:54:02 11° 26° (NNE) 10:55:31 435.800 - 435.900 CW/SSB
JAS-2 17 Sep 10:59:00 10:59:50 10° 324° (NW) 11:00:41 435.800 - 435.900 CW/SSB, 435.910 FM
UOSAT-12 17 Sep 11:01:36 11:05:04 20° 244° (WSW) 11:08:30 437.025 FM, 437.400 FM
FUNcube-1 17 Sep 11:40:32 11:45:00 44° 98° (E) 11:49:26 145.950 - 145.970 MHz USB
MaSat-1 17 Sep 11:47:49 11:52:38 43° 318° (NW) 11:57:11 437.345 MHz
Oscar 19 17 Sep 11:47:57 11:50:45 15° 45° (NE) 11:53:34 437.125 CW, 437.150 USB
HO-68 17 Sep 11:57:08 12:04:11 60° 299° (WNW) 12:11:12 435.675 MHz FM
Oscar 11 17 Sep 11:57:55 12:02:17 69° 289° (WNW) 12:06:36 145.825 FM, Beacon 2401.500 USB
AO-27 17 Sep 12:01:26 12:02:41 11° 38° (NE) 12:03:56 436.795 MHz FM
AO-7 17 Sep 12:03:52 12:08:15 16° 6° (N) 12:12:38 29.400 - 29.500 MHz
UKube-1 17 Sep 12:12:11 12:16:20 44° 295° (WNW) 12:20:29 145.840 MHz, 145.915 MHz
Oscar 16 17 Sep 12:24:32 12:28:38 24° 53° (NE) 12:32:45 437.025 USB, Beacon 2401.1428
JAS-1B 17 Sep 12:36:14 12:42:40 29° 50° (NE) 12:48:17 435.800 - 435.900 CW/SSB
Gurwin Techsat 1B 17 Sep 12:39:23 12:41:03 11° 39° (NE) 12:42:42 435.225 FM
RS-15 17 Sep 12:54:32 13:05:35 78° 36° (NE) 13:16:59 29.354 - 29.394 USB, Beacon 29.352 USB
AO-Echo 17 Sep 12:58:20 13:01:49 21° 54° (NE) 13:05:18 ?
ITAMSAT 1 17 Sep 13:02:48 13:06:50 24° 53° (NE) 13:10:54 435.822 SSB
Uribyol 2 17 Sep 13:07:24 13:11:37 26° 54° (NE) 13:15:52 436.500 FM
TMSAT-1 17 Sep 13:16:26 13:19:22 15° 44° (NE) 13:22:18 436.925 FM
FUNcube-1 17 Sep 13:17:09 13:21:19 34° 298° (WNW) 13:25:28 145.950 - 145.970 MHz USB
Oscar 19 17 Sep 13:24:03 13:29:07 55° 66° (ENE) 13:34:13 437.125 CW, 437.150 USB
Sapphire 17 Sep 13:25:06 13:29:35 27° 113° (ESE) 13:34:06 437.095 MHz 1200 baud AX-25 AFSK
MaSat-1 17 Sep 13:27:04 13:30:32 19° 340° (NNW) 13:33:49 437.345 MHz
Oscar 11 17 Sep 13:35:24 13:37:44 14° 310° (NW) 13:40:04 145.825 FM, Beacon 2401.500 USB
AO-27 17 Sep 13:36:10 13:40:55 38° 60° (ENE) 13:45:41 436.795 MHz FM
HO-68 17 Sep 13:45:31 13:50:41 22° 322° (NW) 13:55:50 435.675 MHz FM
UKube-1 17 Sep 13:51:03 13:51:33 10° 316° (NW) 13:52:03 145.840 MHz, 145.915 MHz
PCSat 17 Sep 13:51:36 13:56:40 42° 119° (ESE) 14:01:46 145.825 MHz
AO-7 17 Sep 13:52:02 13:58:23 26° 33° (NNE) 14:04:44 29.400 - 29.500 MHz
Oscar 16 17 Sep 14:02:18 14:07:30 81° 254° (WSW) 14:12:46 437.025 USB, Beacon 2401.1428
Gurwin Techsat 1B 17 Sep 14:14:50 14:19:44 39° 61° (ENE) 14:24:39 435.225 FM
JAS-1B 17 Sep 14:24:20 14:32:43 86° 71° (ENE) 14:39:40 435.800 - 435.900 CW/SSB
AO-Echo 17 Sep 14:35:23 14:40:08 82° 255° (WSW) 14:44:52 ?
ITAMSAT 1 17 Sep 14:40:39 14:45:50 83° 254° (WSW) 14:51:04 435.822 SSB
Uribyol 2 17 Sep 14:45:32 14:50:42 74° 255° (WSW) 14:55:56 436.500 FM
TMSAT-1 17 Sep 14:53:08 14:58:17 56° 66° (ENE) 15:03:29 436.925 FM
Oscar 19 17 Sep 15:04:09 15:08:45 31° 266° (W) 15:13:23 437.125 CW, 437.150 USB
MaSat-1 17 Sep 15:06:19 15:09:00 15° 4° (N) 15:11:32 437.345 MHz
Sapphire 17 Sep 15:07:08 15:12:34 79° 315° (NW) 15:18:02 437.095 MHz 1200 baud AX-25 AFSK
RS-15 17 Sep 15:07:09 15:17:30 49° 243° (WSW) 15:28:13 29.354 - 29.394 USB, Beacon 29.352 USB
AO-27 17 Sep 15:15:24 15:20:23 47° 261° (W) 15:25:25 436.795 MHz FM
HO-68 17 Sep 15:34:07 15:35:55 11° 348° (NNW) 15:37:44 435.675 MHz FM
PCSat 17 Sep 15:34:41 15:40:02 56° 322° (NW) 15:45:25 145.825 MHz
AO-7 17 Sep 15:41:41 15:49:48 61° 58° (ENE) 15:57:56 29.400 - 29.500 MHz
Uosat F 17 Sep 15:43:29 15:48:01 36° 60° (ENE) 15:52:34 435.120 FM
Oscar 16 17 Sep 15:44:29 15:47:43 17° 275° (W) 15:50:59 437.025 USB, Beacon 2401.1428
Gurwin Techsat 1B 17 Sep 15:54:36 15:59:41 46° 262° (W) 16:04:49 435.225 FM
JAS-2 17 Sep 16:04:35 16:07:19 15° 43° (NE) 16:10:04 435.800 - 435.900 CW/SSB, 435.910 FM
AO-Echo 17 Sep 16:17:05 16:19:43 15° 275° (W) 16:22:20 ?
JAS-1B 17 Sep 16:17:10 16:24:01 28° 270° (W) 16:30:00 435.800 - 435.900 CW/SSB
ITAMSAT 1 17 Sep 16:22:54 16:26:10 17° 274° (W) 16:29:29 435.822 SSB
Uribyol 2 17 Sep 16:28:16 16:31:08 15° 276° (W) 16:34:01 436.500 FM
TMSAT-1 17 Sep 16:33:51 16:38:32 31° 267° (W) 16:43:15 436.925 FM
MaSat-1 17 Sep 16:43:37 16:47:19 24° 28° (NNE) 16:50:38 437.345 MHz
Hamsat 17 Sep 16:48:35 16:51:34 18° 55° (NE) 16:54:32 145.90 MHz
Sapphire 17 Sep 16:51:54 16:56:46 32° 338° (NNW) 17:01:38 437.095 MHz 1200 baud AX-25 AFSK
HO-68 17 Sep 17:18:35 17:20:40 11° 14° (NNE) 17:22:46 435.675 MHz FM
PCSat 17 Sep 17:19:52 17:24:31 28° 346° (NNW) 17:29:11 145.825 MHz
Uosat F 17 Sep 17:21:55 17:26:45 47° 260° (W) 17:31:36 435.120 FM
RS-15 17 Sep 17:22:06 17:26:53 14° 269° (W) 17:31:45 29.354 - 29.394 USB, Beacon 29.352 USB
AO-7 17 Sep 17:35:01 17:42:56 47° 261° (W) 17:50:54 29.400 - 29.500 MHz
JAS-2 17 Sep 17:46:20 17:51:26 57° 66° (ENE) 17:56:34 435.800 - 435.900 CW/SSB, 435.910 FM
OPAL 17 Sep 18:07:18 18:12:15 41° 100° (E) 18:17:06 ?
SO-67 17 Sep 18:19:03 18:21:18 17° 59° (ENE) 18:23:33 435.3500 MHz FM
MaSat-1 17 Sep 18:20:24 18:24:46 88° 52° (NE) 18:28:29 437.345 MHz
Hamsat 17 Sep 18:22:37 18:27:00 87° 255° (WSW) 18:31:24 145.90 MHz
Saudisat 1A 17 Sep 18:25:32 18:28:48 21° 118° (ESE) 18:32:06 436.775 MHz
Sapphire 17 Sep 18:37:13 18:41:42 25° 4° (N) 18:46:11 437.095 MHz 1200 baud AX-25 AFSK
STRAND 1 17 Sep 18:46:38 18:47:57 11° 81° (E) 18:49:17 ?
HO-68 17 Sep 19:00:39 19:06:00 24° 40° (NE) 19:11:21 435.675 MHz FM
PCSat 17 Sep 19:04:54 19:09:31 27° 12° (NNE) 19:14:07 145.825 MHz
KITSAT 1 17 Sep 19:10:10 19:13:54 14° 97° (E) 19:17:39 435.175 FM
JAS-2 17 Sep 19:32:34 19:37:00 28° 268° (W) 19:41:28 435.800 - 435.900 CW/SSB, 435.910 FM
AO-7 17 Sep 19:35:31 19:38:09 12° 285° (WNW) 19:40:47 29.400 - 29.500 MHz
OPAL 17 Sep 19:46:16 19:51:12 43° 301° (WNW) 19:56:03 ?
SO-67 17 Sep 19:50:32 19:53:58 63° 258° (WSW) 19:57:26 435.3500 MHz FM
MaSat-1 17 Sep 19:58:27 20:00:45 15° 257° (WSW) 20:02:54 437.345 MHz
Hamsat 17 Sep 20:01:15 20:03:39 14° 275° (W) 20:06:03 145.90 MHz
Saudisat 1A 17 Sep 20:03:28 20:07:53 89° 315° (NW) 20:12:21 436.775 MHz
UKube-1 17 Sep 20:05:07 20:07:26 14° 49° (NE) 20:09:46 145.840 MHz, 145.915 MHz
Sapphire 17 Sep 20:21:21 20:26:29 40° 29° (NNE) 20:31:36 437.095 MHz 1200 baud AX-25 AFSK
STRAND 1 17 Sep 20:23:15 20:28:19 57° 102° (ESE) 20:33:22 ?
HO-68 17 Sep 20:45:34 20:52:36 66° 63° (ENE) 20:59:42 435.675 MHz FM
PCSat 17 Sep 20:48:43 20:54:04 52° 37° (NE) 20:59:22 145.825 MHz
KITSAT 1 17 Sep 20:59:44 21:07:27 51° 120° (ESE) 21:15:11 435.175 FM
FUNcube-1 17 Sep 21:09:48 21:12:46 18° 52° (NE) 21:15:46 145.950 - 145.970 MHz USB
Oscar 11 17 Sep 21:24:20 21:28:23 38° 64° (ENE) 21:32:28 145.825 FM, Beacon 2401.500 USB
OPAL 17 Sep 21:26:34 21:28:55 13° 323° (NW) 21:31:16 ?
UKube-1 17 Sep 21:38:36 21:42:55 68° 70° (ENE) 21:47:15 145.840 MHz, 145.915 MHz
Saudisat 1A 17 Sep 21:43:56 21:47:58 33° 341° (NNW) 21:52:01 436.775 MHz
STRAND 1 17 Sep 22:02:49 22:07:19 32° 302° (WNW) 22:11:49 ?
Sapphire 17 Sep 22:04:53 22:10:20 72° 232° (SW) 22:15:44 437.095 MHz 1200 baud AX-25 AFSK
PCSat 17 Sep 22:32:19 22:37:31 47° 239° (WSW) 22:42:41 145.825 MHz
HO-68 17 Sep 22:34:17 22:40:48 37° 265° (W) 22:47:22 435.675 MHz FM
FUNcube-1 17 Sep 22:44:05 22:48:32 85° 73° (ENE) 22:53:07 145.950 - 145.970 MHz USB
KITSAT 1 17 Sep 22:54:43 23:02:47 66° 324° (NW) 23:10:52 435.175 FM
Oscar 11 17 Sep 23:00:38 23:04:38 35° 264° (W) 23:08:41 145.825 FM, Beacon 2401.500 USB
UKube-1 17 Sep 23:16:25 23:19:35 20° 270° (W) 23:22:47 145.840 MHz, 145.915 MHz
AO-40 17 Sep 23:23:31 02:09:56 19° 139° (SE) 03:29:51 Beacon 2401.320
Saudisat 1A 17 Sep 23:24:50 23:28:37 27° 5° (N) 23:32:24 436.775 MHz
SO-50 17 Sep 23:30:52 23:34:17 21° 117° (ESE) 23:37:45 436.795 FM
Sapphire 17 Sep 23:49:29 23:52:53 17° 253° (WSW) 23:56:17 437.095 MHz 1200 baud AX-25 AFSK
FUNcube-1 18 Sep 00:22:44 00:25:35 17° 274° (W) 00:28:30 145.950 - 145.970 MHz USB
KITSAT 1 18 Sep 00:51:57 00:59:34 42° 352° (N) 01:07:10 435.175 FM
Saudisat 1A 18 Sep 01:04:50 01:09:07 45° 28° (NNE) 01:13:22 436.775 MHz
SO-50 18 Sep 01:09:44 01:14:18 89° 318° (NW) 01:19:01 436.795 FM
UOSAT-12 18 Sep 01:19:23 01:22:59 22° 117° (ESE) 01:26:38 437.025 FM, 437.400 FM
Oscar 19 18 Sep 01:30:22 01:31:42 11° 80° (E) 01:33:02 437.125 CW, 437.150 USB
JAS-1B 18 Sep 02:03:33 02:05:52 12° 78° (ENE) 02:08:07 435.800 - 435.900 CW/SSB
Oscar 16 18 Sep 02:06:56 02:10:54 22° 89° (E) 02:14:51 437.025 USB, Beacon 2401.1428
OPAL 18 Sep 02:17:05 02:18:39 11° 34° (NE) 02:20:13 ?
AO-Echo 18 Sep 02:35:20 02:38:42 19° 88° (E) 02:42:05 ?
Saudisat 1A 18 Sep 02:44:31 02:48:49 52° 230° (SW) 02:53:07 436.775 MHz
ITAMSAT 1 18 Sep 02:46:26 02:50:21 21° 89° (E) 02:54:16 435.822 SSB
KITSAT 1 18 Sep 02:48:56 02:56:45 48° 20° (NNE) 03:04:31 435.175 FM
Uribyol 2 18 Sep 02:50:59 02:55:10 24° 90° (E) 02:59:21 436.500 FM
SO-50 18 Sep 02:51:09 02:55:23 35° 341° (NNW) 02:59:45 436.795 FM
UOSAT-12 18 Sep 02:57:56 03:02:38 88° 316° (NW) 03:07:25 437.025 FM, 437.400 FM
TMSAT-1 18 Sep 03:02:55 03:05:09 13° 81° (E) 03:07:22 436.925 FM
Oscar 19 18 Sep 03:07:07 03:12:15 56° 101° (E) 03:17:19 437.125 CW, 437.150 USB
AO-27 18 Sep 03:20:29 03:25:19 37° 96° (E) 03:30:07 436.795 MHz FM
RS-15 18 Sep 03:34:33 03:39:46 15° 93° (E) 03:44:57 29.354 - 29.394 USB, Beacon 29.352 USB
Oscar 16 18 Sep 03:45:39 03:50:53 78° 289° (WNW) 03:56:03 437.025 USB, Beacon 2401.1428
OPAL 18 Sep 03:51:31 03:56:13 36° 56° (NE) 04:00:58 ?
JAS-1B 18 Sep 03:52:08 03:58:10 63° 103° (ESE) 04:03:47 435.800 - 435.900 CW/SSB
